DL6MAA-11 Weather Reports


time (UTC)temp
C
wind
direction
speed
KPH
gust
KPH
rain 1hr
cm
rain 24hr
cm
rain mn
cm
humidity
%
barometer
mb
20260902202207 -17 0.0 0.0 0.00 0.00 0.00 1019.4
20260902201707 -17 0.0 0.0 0.00 0.00 0.00 1019.4
20260902201205 -17 0.0 0.0 0.00 0.00 0.00 1019.6
20260902200659 18 0.0 0.0 0.00 0.00 0.00 60 1019.6
20260902200208 18 281 0.0 0.0 0.00 0.00 0.00 60 1019.6
20260902195713 18 281 0.0 0.0 0.00 0.00 0.00 59 1019.5
20260902195204 19 360 0.0 0.0 0.00 0.00 0.00 59 1019.5
20260902194711 19 281 0.0 0.0 0.00 0.00 0.00 59 1019.5
20260902194210 19 281 0.0 0.0 0.00 0.00 0.00 59 1019.5
20260902193657 19 281 0.0 0.0 0.00 0.00 0.00 58 1019.5
20260902193158 19 281 0.0 0.0 0.00 0.00 0.00 58 1019.5
20260902192702 20 281 0.0 0.0 0.00 0.00 0.00 57 1019.4
20260902192159 20 281 0.0 0.0 0.00 0.00 0.00 57 1019.4
20260902191710 20 360 0.0 0.0 0.00 0.00 0.00 56 1019.4
20260902191201 20 281 0.0 0.0 0.00 0.00 0.00 56 1019.9
20260902190707 20 280 0.0 0.0 0.00 0.00 0.00 56 1019.9
20260902190158 20 280 0.0 0.0 0.00 0.00 0.00 55 1019.9
20260902185705 20 280 0.0 0.0 0.00 0.00 0.00 55 1019.6
20260902185209 20 280 0.0 0.0 0.00 0.00 0.00 54 1019.6
20260902184708 20 290 0.0 0.0 0.00 0.00 0.00 54 1019.6
20260902184213 20 290 1.6 0.0 0.00 0.00 0.00 54 1019.3
20260902183656 20 290 1.6 0.0 0.00 0.00 0.00 53 1019.3
20260902183204 21 322 0.0 0.0 0.00 0.00 0.00 53 1019.3
20260902182712 21 234 0.0 0.0 0.00 0.00 0.00 53 1019.2
20260902182206 21 232 0.0 0.0 0.00 0.00 0.00 52 1019.2
20260902181701 21 232 0.0 0.0 0.00 0.00 0.00 51 1019.2
20260902181214 21 232 0.0 0.0 0.00 0.00 0.00 51 1019.0
20260902180659 21 232 0.0 0.0 0.00 0.00 0.00 51 1019.0
20260902180201 21 223 0.0 0.0 0.00 0.00 0.00 51 1019.0
20260902175659 21 227 0.0 0.0 0.00 0.00 0.00 51 1018.7
20260902175208 21 224 0.0 0.0 0.00 0.00 0.00 50 1018.7
20260902174659 21 225 0.0 0.0 0.00 0.00 0.00 49 1018.7
20260902174205 21 230 0.0 0.0 0.00 0.00 0.00 49 1018.6
20260902173711 21 360 0.0 0.0 0.00 0.00 0.00 49 1018.6
20260902173156 21 360 0.0 0.0 0.00 0.00 0.00 50 1018.6
20260902172659 21 230 0.0 0.0 0.00 0.00 0.00 49 1018.5
20260902172207 21 244 0.0 0.0 0.00 0.00 0.00 49 1018.5
20260902171701 21 360 0.0 0.0 0.00 0.00 0.00 50 1018.5
20260902171155 21 226 0.0 0.0 0.00 0.00 0.00 49 1018.5
20260902170710 22 360 0.0 0.0 0.00 0.00 0.00 50 1018.5
20260902170202 22 233 0.0 0.0 0.00 0.00 0.00 49 1018.5
20260902165701 22 275 0.0 0.0 0.00 0.00 0.00 50 1018.5
20260902165206 22 275 0.0 0.0 0.00 0.00 0.00 49 1018.5
20260902164706 22 275 0.0 0.0 0.00 0.00 0.00 49 1018.5
20260902164209 22 218 0.0 0.0 0.00 0.00 0.00 48 1018.3
20260902163718 22 232 1.6 0.0 0.00 0.00 0.00 48 1018.3
20260902163206 22 218 3.2 0.0 0.00 0.00 0.00 47 1018.3
20260902162717 22 360 3.2 0.0 0.00 0.00 0.00 47 1018.1
20260902162159 23 267 1.6 0.0 0.00 0.00 0.00 47 1018.1
20260902161705 23 253 4.8 0.0 0.00 0.00 0.00 46 1018.1
20260902161212 23 288 3.2 0.0 0.00 0.00 0.00 46 1017.9
20260902160657 23 360 0.0 0.0 0.00 0.00 0.00 46 1017.9
20260902160206 23 246 0.0 0.0 0.00 0.00 0.00 46 1017.9
20260902155712 23 259 1.6 0.0 0.00 0.00 0.00 46 1017.8
20260902155205 23 203 3.2 0.0 0.00 0.00 0.00 46 1017.8
20260902154713 23 360 3.2 0.0 0.00 0.00 0.00 45 1017.8
20260902154156 23 273 0.0 0.0 0.00 0.00 0.00 44 1018.6
20260902153705 23 209 0.0 0.0 0.00 0.00 0.00 46 1018.6
20260902153206 24 168 1.6 0.0 0.00 0.00 0.00 45 1018.6
20260902152705 24 360 3.2 0.0 0.00 0.00 0.00 45 1018.0
20260902152207 23 254 8.0 0.0 0.00 0.00 0.00 46 1018.0
20260902151718 23 283 8.0 0.0 0.00 0.00 0.00 46 1018.0
20260902151200 23 360 8.0 0.0 0.00 0.00 0.00 44 1018.9
20260902150706 24 271 8.0 0.0 0.00 0.00 0.00 45 1018.9
20260902150158 24 257 9.7 0.0 0.00 0.00 0.00 43 1018.9
20260902145713 23 250 8.0 0.0 0.00 0.00 0.00 46 1018.0
20260902145203 23 360 4.8 0.0 0.00 0.00 0.00 46 1018.0
20260902144717 23 360 4.8 0.0 0.00 0.00 0.00 46 1018.0
20260902144202 23 275 3.2 0.0 0.00 0.00 0.00 48 1017.9
20260902143705 24 276 3.2 0.0 0.00 0.00 0.00 44 1017.9
20260902143213 23 288 4.8 0.0 0.00 0.00 0.00 47 1017.9
20260902142705 24 360 3.2 0.0 0.00 0.00 0.00 47 1018.8
20260902142211 24 271 6.4 0.0 0.00 0.00 0.00 47 1018.8
20260902141712 25 288 6.4 0.0 0.00 0.00 0.00 44 1018.8
20260902141156 25 236 6.4 0.0 0.00 0.00 0.00 45 1018.8
20260902140700 25 283 6.4 0.0 0.00 0.00 0.00 45 1018.8
20260902140159 25 360 1.6 0.0 0.00 0.00 0.00 45 1018.8
20260902135701 24 186 3.2 0.0 0.00 0.00 0.00 46 1018.9
20260902135210 24 232 8.0 0.0 0.00 0.00 0.00 47 1018.9
20260902134716 24 360 4.8 0.0 0.00 0.00 0.00 44 1018.9
20260902134159 24 304 3.2 0.0 0.00 0.00 0.00 48 1018.9
20260902133704 23 190 4.8 0.0 0.00 0.00 0.00 46 1018.9
20260902133211 25 278 4.8 0.0 0.00 0.00 0.00 44 1018.9
20260902132711 25 176 3.2 0.0 0.00 0.00 0.00 43 1018.9
20260902132205 24 292 3.2 0.0 0.00 0.00 0.00 46 1018.9
20260902131717 24 360 1.6 0.0 0.00 0.00 0.00 46 1018.9
20260902131203 24 0.0 0.0 0.00 0.00 0.00 45 1018.1
20260902130711 24 198 6.4 0.0 0.00 0.00 0.00 47 1018.1
20260902130201 23 271 8.0 0.0 0.00 0.00 0.00 48 1018.1
20260902125719 23 360 4.8 0.0 0.00 0.00 0.00 48 1018.9
20260902125205 25 288 1.6 0.0 0.00 0.00 0.00 48 1018.9
20260902124710 24 193 1.6 0.0 0.00 0.00 0.00 47 1018.9
20260902124216 24 360 1.6 0.0 0.00 0.00 0.00 46 1019.3
20260902123715 25 153 1.6 0.0 0.00 0.00 0.00 47 1019.3
20260902123201 24 188 4.8 0.0 0.00 0.00 0.00 48 1019.3
20260902122709 23 360 6.4 0.0 0.00 0.00 0.00 48 1019.5
20260902122209 23 311 3.2 0.0 0.00 0.00 0.00 48 1019.5
20260902121717 24 240 1.6 0.0 0.00 0.00 0.00 46 1019.5
20260902121209 24 150 3.2 0.0 0.00 0.00 0.00 49 1019.0
20260902120714 23 360 3.2 0.0 0.00 0.00 0.00 49 1019.0
20260902120218 23 186 3.2 0.0 0.00 0.00 0.00 51 1019.0
20260902115705 23 288 6.4 0.0 0.00 0.00 0.00 50 1018.7
20260902115204 23 274 11.3 0.0 0.00 0.00 0.00 51 1018.7
20260902114711 23 288 11.3 0.0 0.00 0.00 0.00 51 1018.7
20260902114214 23 360 4.8 0.0 0.00 0.00 0.00 52 1018.9
20260902113704 23 301 1.6 0.0 0.00 0.00 0.00 50 1018.9
20260902113213 23 360 1.6 0.0 0.00 0.00 0.00 53 1018.9
20260902112706 23 276 1.6 0.0 0.00 0.00 0.00 51 1019.1
20260902112159 23 292 1.6 0.0 0.00 0.00 0.00 51 1019.1
20260902111714 23 302 1.6 0.0 0.00 0.00 0.00 52 1019.1
20260902111208 22 360 1.6 0.0 0.00 0.00 0.00 57 1019.4
20260902110703 22 306 0.0 0.0 0.00 0.00 0.00 56 1019.4
20260902110210 22 318 0.0 0.0 0.00 0.00 0.00 57 1019.4
20260902105713 22 360 1.6 0.0 0.00 0.00 0.00 57 1019.6
20260902105158 21 360 1.6 0.0 0.00 0.00 0.00 58 1019.6
20260902104707 22 290 1.6 0.0 0.00 0.00 0.00 57 1019.6
20260902104210 22 279 0.0 0.0 0.00 0.00 0.00 59 1019.7
20260902103718 21 259 0.0 0.0 0.00 0.00 0.00 57 1019.7
20260902103202 21 321 0.0 0.0 0.00 0.00 0.00 58 1019.7
20260902102707 21 321 0.0 0.0 0.00 0.00 0.00 59 1019.9
20260902102205 21 355 0.0 0.0 0.00 0.00 0.00 60 1019.9
20260902101706 21 9 0.0 0.0 0.00 0.00 0.00 60 1019.9
20260902101215 21 9 0.0 0.0 0.00 0.00 0.00 59 1020.1
20260902100718 21 253 0.0 0.0 0.00 0.00 0.00 62 1020.1
20260902100200 21 240 0.0 0.0 0.00 0.00 0.00 62 1020.1
20260902095706 21 295 0.0 0.0 0.00 0.00 0.00 62 1020.3
20260902095209 21 295 0.0 0.0 0.00 0.00 0.00 63 1020.3
20260902094707 20 360 0.0 0.0 0.00 0.00 0.00 64 1020.3
20260902094214 20 294 0.0 0.0 0.00 0.00 0.00 64 1019.6
20260902093714 20 292 0.0 0.0 0.00 0.00 0.00 65 1019.6
20260902093216 20 311 0.0 0.0 0.00 0.00 0.00 63 1019.6
20260902092715 20 360 0.0 0.0 0.00 0.00 0.00 64 1019.5
20260902092201 20 360 0.0 0.0 0.00 0.00 0.00 64 1019.5
20260902091701 20 268 0.0 0.0 0.00 0.00 0.00 65 1019.5
20260902091200 19 273 0.0 0.0 0.00 0.00 0.00 63 1020.2
20260902090708 19 273 0.0 0.0 0.00 0.00 0.00 64 1020.2
20260902090207 19 198 0.0 0.0 0.00 0.00 0.00 66 1020.2
20260902085710 19 199 0.0 0.0 0.00 0.00 0.00 64 1020.2
20260902085211 19 163 0.0 0.0 0.00 0.00 0.00 65 1020.2
20260902084703 19 161 0.0 0.0 0.00 0.00 0.00 66 1020.2
20260902084206 18 161 0.0 0.0 0.00 0.00 0.00 66 1020.4
20260902083704 18 360 0.0 0.0 0.00 0.00 0.00 67 1020.4
20260902083213 18 162 0.0 0.0 0.00 0.00 0.00 68 1020.4
20260902082710 18 162 0.0 0.0 0.00 0.00 0.00 66 1020.2
20260902082216 18 162 0.0 0.0 0.00 0.00 0.00 66 1020.2
20260902081700 18 161 0.0 0.0 0.00 0.00 0.00 69 1020.2
20260902081214 18 161 0.0 0.0 0.00 0.00 0.00 69 1019.9
20260902080709 18 360 0.0 0.0 0.00 0.00 0.00 69 1019.9
20260902080203 18 360 0.0 0.0 0.00 0.00 0.00 67 1019.9
20260902075708 17 160 0.0 0.0 0.00 0.00 0.00 70 1020.0
20260902075210 17 160 0.0 0.0 0.00 0.00 0.00 74 1020.0
20260902074712 17 0.0 0.0 0.00 0.00 0.00 73 1020.0
20260902074218 -17 0.0 0.0 0.00 0.00 0.00 1019.2
20260902073717 -17 0.0 0.0 0.00 0.00 0.00 1019.2
20260902073216 -17 0.0 0.0 0.00 0.00 0.00 1019.2
20260902072703 -17 0.0 0.0 0.00 0.00 0.00 1019.3
20260902072213 -17 0.0 0.0 0.00 0.00 0.00 1019.3
20260902071707 -17 0.0 0.0 0.00 0.00 0.00 1019.3
20260902071159 -17 0.0 0.0 0.00 0.00 0.00 1019.8
20260902070711 -17 0.0 0.0 0.00 0.00 0.00 1019.8
20260902070211 -17 0.0 0.0 0.00 0.00 0.00 1019.8
20260902065711 -17 0.0 0.0 0.00 0.00 0.00 1019.8
20260902065200 -17 0.0 0.0 0.00 0.00 0.00 1019.8
20260902064714 -17 0.0 0.0 0.00 0.00 0.00 1019.8
20260902064208 -17 0.0 0.0 0.00 0.00 0.00 1019.8
20260902063700 -17 0.0 0.0 0.00 0.00 0.00 1019.8
20260902063211 -17 0.0 0.0 0.00 0.00 0.00 1019.8
20260902062714 -17 0.0 0.0 0.00 0.00 0.00 1019.7
20260902062202 -17 0.0 0.0 0.00 0.00 0.00 1019.7
20260902061718 -17 0.0 0.0 0.00 0.00 0.00 1019.7
20260902061203 -17 0.0 0.0 0.00 0.00 0.00 1019.4
20260902060713 -17 0.0 0.0 0.00 0.00 0.00 1019.4
20260902060202 -17 0.0 0.0 0.00 0.00 0.00 1019.4
20260902055712 -17 0.0 0.0 0.00 0.00 0.00 1019.4
20260902055207 -17 0.0 0.0 0.00 0.00 0.00 1019.4
20260902054700 -17 0.0 0.0 0.00 0.00 0.00 1019.4
20260902054215 -17 0.0 0.0 0.00 0.00 0.00 1019.3
20260902053709 -17 0.0 0.0 0.00 0.00 0.00 1019.3
20260902053205 -17 0.0 0.0 0.00 0.00 0.00 1019.3
20260902052658 -17 0.0 0.0 0.00 0.00 0.00 1019.3
20260902052211 -17 0.0 0.0 0.00 0.00 0.00 1019.3
20260902051706 -17 0.0 0.0 0.00 0.00 0.00 1019.3
20260902051200 -17 0.0 0.0 0.00 0.00 0.00 1019.2
20260902050709 -17 0.0 0.0 0.00 0.00 0.00 1019.2
20260902050212 -17 0.0 0.0 0.00 0.00 0.00 1019.2
20260902045715 -17 0.0 0.0 0.00 0.00 0.00 1019.4
20260902045206 -17 0.0 0.0 0.00 0.00 0.00 1019.4
20260902044700 -17 0.0 0.0 0.00 0.00 0.00 1019.4
20260902044214 -17 0.0 0.0 0.00 0.00 0.00 1019.2
20260902043710 -17 0.0 0.0 0.00 0.00 0.00 1019.2
20260902043205 -17 0.0 0.0 0.00 0.00 0.00 1019.2
20260902042659 -17 0.0 0.0 0.00 0.00 0.00 1019.3
20260902042210 -17 0.0 0.0 0.00 0.00 0.00 1019.3
20260902041718 -17 0.0 0.0 0.00 0.00 0.00 1019.3
20260902041217 -17 0.0 0.0 0.00 0.00 0.00 1019.1
20260902040715 -17 0.0 0.0 0.00 0.00 0.00 1019.1
20260902040204 -17 0.0 0.0 0.00 0.00 0.00 1019.1
20260902035658 -17 0.0 0.0 0.00 0.00 0.00 1019.2
20260902035213 -17 0.0 0.0 0.00 0.00 0.00 1019.2
20260902034708 -17 0.0 0.0 0.00 0.00 0.00 1019.2
20260902034203 -17 0.0 0.0 0.00 0.00 0.00 1019.1
20260902033714 -17 0.0 0.0 0.00 0.00 0.00 1019.1
20260902033209 -17 0.0 0.0 0.00 0.00 0.00 1019.1
20260902032703 -17 0.0 0.0 0.00 0.00 0.00 1019.2
20260902032216 -17 0.0 0.0 0.00 0.00 0.00 1019.2
20260902031710 -17 0.0 0.0 0.00 0.00 0.00 1019.2
20260902031205 -17 0.0 0.0 0.00 0.00 0.00 1019.3
20260902030710 -17 0.0 0.0 0.00 0.00 0.00 1019.3
20260902030210 -17 0.0 0.0 0.00 0.00 0.00 1019.3
20260902025709 -17 0.0 0.0 0.00 0.00 0.00 1019.3
20260902025204 -17 0.0 0.0 0.00 0.00 0.00 1019.3
20260902024717 -17 0.0 0.0 0.00 0.00 0.00 1019.3
20260902024213 -17 0.0 0.0 0.00 0.00 0.00 1019.4
20260902023707 -17 0.0 0.0 0.00 0.00 0.00 1019.4
20260902023201 -17 0.0 0.0 0.00 0.00 0.00 1019.4
20260902022715 -17 0.0 0.0 0.00 0.00 0.00 1019.1
20260902022210 -17 0.0 0.0 0.00 0.00 0.00 1019.1
20260902021704 -17 0.0 0.0 0.00 0.00 0.00 1019.1
20260902021158 -17 0.0 0.0 0.00 0.00 0.00 1019.6
20260902020708 -17 0.0 0.0 0.00 0.00 0.00 1019.6
20260902020201 -17 0.0 0.0 0.00 0.00 0.00 1019.6
20260902015716 -17 0.0 0.0 0.00 0.00 0.00 1019.7
20260902015211 -17 0.0 0.0 0.00 0.00 0.00 1019.7
20260902014706 -17 0.0 0.0 0.00 0.00 0.00 1019.7
20260902014212 -17 0.0 0.0 0.00 0.00 0.00 1019.7
20260902013712 -17 0.0 0.0 0.00 0.00 0.00 1019.7
20260902013214 -17 0.0 0.0 0.00 0.00 0.00 1019.7
20260902012703 -17 0.0 0.0 0.00 0.00 0.00 1019.7
20260902012202 -17 0.0 0.0 0.00 0.00 0.00 1019.7
20260902011708 -17 0.0 0.0 0.00 0.00 0.00 1019.7
20260902011159 -17 0.0 0.0 0.00 0.00 0.00 1019.7
20260902010708 -17 0.0 0.0 0.00 0.00 0.00 1019.7
20260902010220 -17 0.0 0.0 0.00 0.00 0.00 1019.7
20260902005708 -17 0.0 0.0 0.00 0.00 0.00 1019.8
20260902005214 -17 0.0 0.0 0.00 0.00 0.00 1019.8
20260902004715 -17 0.0 0.0 0.00 0.00 0.00 1019.8
20260902004158 -17 0.0 0.0 0.00 0.00 0.00 1019.9
20260902003713 -17 0.0 0.0 0.00 0.00 0.00 1019.9
20260902003216 -17 0.0 0.0 0.00 0.00 0.00 1019.9
20260902002721 -17 0.0 0.0 0.00 0.00 0.00 1020.0
20260902002208 -17 0.0 0.0 0.00 0.00 0.00 1020.0
20260902001720 -17 0.0 0.0 0.00 0.00 0.00 1020.0
20260902001202 -17 0.0 0.0 0.00 0.00 0.00 1020.1
20260902000703 -17 0.0 0.0 0.00 0.00 0.00 1020.1
20260902000213 -17 0.0 0.0 0.00 0.00 0.00 1020.1
20260901235716 -17 0.0 0.0 0.00 0.00 0.00 1020.2
20260901235219 -17 0.0 0.0 0.00 0.00 0.00 1020.2
20260901234710 -17 0.0 0.0 0.00 0.00 0.00 1020.2
20260901234213 -17 0.0 0.0 0.00 0.00 0.00 1020.2
20260901233719 -17 0.0 0.0 0.00 0.00 0.00 1020.2
20260901233221 -17 0.0 0.0 0.00 0.00 0.00 1020.2
20260901232709 -17 0.0 0.0 0.00 0.00 0.00 1020.2
20260901232214 -17 0.0 0.0 0.00 0.00 0.00 1020.2
20260901231701 -17 0.0 0.0 0.00 0.00 0.00 1020.2
20260901231216 -17 0.0 0.0 0.00 0.00 0.00 1020.4
20260901230705 -17 0.0 0.0 0.00 0.00 0.00 1020.4
20260901230207 -17 0.0 0.0 0.00 0.00 0.00 1020.4
20260901225712 -17 0.0 0.0 0.00 0.00 0.00 1020.4
20260901225221 -17 0.0 0.0 0.00 0.00 0.00 1020.4
20260901224720 -17 0.0 0.0 0.00 0.00 0.00 1020.4
20260901224201 -17 0.0 0.0 0.00 0.00 0.00 1020.5
20260901223709 -17 0.0 0.0 0.00 0.00 0.00 1020.5
20260901223211 -17 0.0 0.0 0.00 0.00 0.00 1020.5
20260901222710 -17 0.0 0.0 0.00 0.00 0.00 1020.6
20260901222158 -17 0.0 0.0 0.00 0.00 0.00 1020.6
20260901221718 -17 0.0 0.0 0.00 0.00 0.00 1020.6
20260901221218 -17 0.0 0.0 0.00 0.00 0.00 1020.8
20260901220704 -17 0.0 0.0 0.00 0.00 0.00 1020.8
20260901220210 -17 0.0 0.0 0.00 0.00 0.00 1020.8
20260901215710 -17 0.0 0.0 0.00 0.00 0.00 1020.5
20260901215212 -17 0.0 0.0 0.00 0.00 0.00 1020.5
20260901214705 -17 0.0 0.0 0.00 0.00 0.00 1020.5
20260901214204 -17 0.0 0.0 0.00 0.00 0.00 1020.5
20260901213704 -17 0.0 0.0 0.00 0.00 0.00 1020.5
20260901213208 -17 0.0 0.0 0.00 0.00 0.00 1020.5
20260901212714 -17 0.0 0.0 0.00 0.00 0.00 1020.4
20260901212217 -17 0.0 0.0 0.00 0.00 0.00 1020.4
20260901211716 15 0.0 0.0 0.00 0.00 0.00 74 1020.4
20260901211210 15 338 0.0 0.0 0.00 0.00 0.00 74 1020.5
20260901210713 15 339 0.0 0.0 0.00 0.00 0.00 74 1020.5
20260901210202 15 360 0.0 0.0 0.00 0.00 0.00 74 1020.5
20260901205704 15 338 0.0 0.0 0.00 0.00 0.00 73 1020.4
20260901205210 15 338 0.0 0.0 0.00 0.00 0.00 73 1020.4
20260901204710 15 339 0.0 0.0 0.00 0.00 0.00 73 1020.4
20260901204213 15 339 0.0 0.0 0.00 0.00 0.00 73 1020.3
20260901203718 15 338 0.0 0.0 0.00 0.00 0.00 72 1020.3
20260901203158 15 338 0.0 0.0 0.00 0.00 0.00 72 1020.3
20260901202704 15 338 0.0 0.0 0.00 0.00 0.00 72 1020.3